User: anonymous
Location: Unspecified
(0.0000°N, 0.0000°E)
Time: 20:15:58
(UTC+02:00)
Language:

Cosmos 1092 Rocket - Orbit

View from above orbital plane
View from above orbital plane
View from above satellite
View from above satellite

Ground track
Ground track

The orbit data is extracted from the following two-line orbital elements,

1 11327U 79030B   14203.83383444  .00000017  00000-0  24431-5 0  8008
2 11327 082.9508 003.1659 0026344 267.2156 201.5283 13.76938079773214
Epoch (UTC): 22 July 2014 20:00:43
Eccentricity: 0.0026344
inclination: 82.9508°
perigee height: 955 km
apogee height: 994 km
right ascension of ascending node: 3.1659°
argument of perigee: 267.2156°
revolutions per day: 13.76938079
mean anomaly at epoch: 201.5283°
orbit number at epoch: 77321

The dashed part of the orbit path shows where the satellite is in the earth's shadow,  

DLR